Time,TemperatureF,DewpointF,PressureIn,WindDirection,WindDirectionDegrees,WindSpeedMPH,WindSpeedGustMPH,Humidity,HourlyPrecipIn,Conditions,Clouds,dailyrainin,SoftwareType,DateUTC
2013-06-29 00:02:00,75.1,59.8,29.91,North,4,3.0,30.0,59,0.00,,,0.00,Wunderground v.1.15,2013-06-29 05:02:00,
2013-06-29 00:12:00,74.7,59.9,29.91,North,9,3.0,30.0,60,0.00,,,0.00,Wunderground v.1.15,2013-06-29 05:12:00,
2013-06-29 00:22:00,74.5,59.7,29.91,NNE,13,3.0,30.0,60,0.00,,,0.00,Wunderground v.1.15,2013-06-29 05:22:00,
2013-06-29 00:32:00,73.9,60.5,29.91,NNW,335,2.0,2.0,63,0.00,,,0.00,Wunderground v.1.15,2013-06-29 05:32:00,
2013-06-29 00:42:00,72.8,61.6,29.91,North,359,2.0,30.0,68,0.00,,,0.00,Wunderground v.1.15,2013-06-29 05:42:00,
2013-06-29 00:52:00,72.1,61.4,29.91,North,353,3.0,30.0,69,0.00,,,0.00,Wunderground v.1.15,2013-06-29 05:52:00,
2013-06-29 01:02:00,72.0,61.3,29.91,NNW,342,3.0,3.0,69,0.00,,,0.00,Wunderground v.1.15,2013-06-29 06:02:00,
2013-06-29 01:12:00,71.6,61.3,29.91,NNW,345,3.0,30.0,70,0.00,,,0.00,Wunderground v.1.15,2013-06-29 06:12:00,
2013-06-29 01:22:00,71.5,61.2,29.92,NNW,337,3.0,3.0,70,0.00,,,0.00,Wunderground v.1.15,2013-06-29 06:22:00,
2013-06-29 01:32:00,71.1,60.8,29.91,NNW,329,3.0,30.0,70,0.00,,,0.00,Wunderground v.1.15,2013-06-29 06:32:00,
2013-06-29 01:42:00,71.3,61.0,29.92,WNW,302,2.0,30.0,70,0.00,,,0.00,Wunderground v.1.15,2013-06-29 06:42:00,
2013-06-29 01:51:00,70.9,61.0,29.92,North,357,2.0,30.0,71,0.00,,,0.00,Wunderground v.1.15,2013-06-29 06:51:00,
2013-06-29 02:01:00,70.5,61.4,29.92,NNW,333,2.0,2.0,73,0.00,,,0.00,Wunderground v.1.15,2013-06-29 07:01:00,
2013-06-29 02:11:00,70.2,61.5,29.93,NNW,347,2.0,2.0,74,0.00,,,0.00,Wunderground v.1.15,2013-06-29 07:11:00,
2013-06-29 02:22:00,69.8,61.5,29.93,NNW,336,2.0,2.0,75,0.00,,,0.00,Wunderground v.1.15,2013-06-29 07:22:00,
2013-06-29 02:32:00,69.8,61.1,29.94,NNW,333,2.0,30.0,74,0.00,,,0.00,Wunderground v.1.15,2013-06-29 07:32:00,
2013-06-29 02:42:00,69.7,61.4,29.94,NNE,20,3.0,30.0,75,0.00,,,0.00,Wunderground v.1.15,2013-06-29 07:42:00,
2013-06-29 02:52:00,69.4,61.1,29.93,NNW,336,4.0,4.0,75,0.00,,,0.00,Wunderground v.1.15,2013-06-29 07:52:00,
2013-06-29 03:02:00,69.7,61.0,29.94,WNW,299,2.0,30.0,74,0.00,,,0.00,Wunderground v.1.15,2013-06-29 08:02:00,
2013-06-29 03:12:00,69.7,61.0,29.94,NNW,347,2.0,2.0,74,0.00,,,0.00,Wunderground v.1.15,2013-06-29 08:12:00,
2013-06-29 03:22:00,69.2,60.9,29.93,NNE,15,2.0,30.0,75,0.00,,,0.00,Wunderground v.1.15,2013-06-29 08:22:00,
2013-06-29 03:32:00,69.4,60.8,29.93,NNW,342,3.0,30.0,74,0.00,,,0.00,Wunderground v.1.15,2013-06-29 08:32:00,
2013-06-29 03:42:00,69.7,60.3,29.93,North,357,4.0,30.0,72,0.00,,,0.00,Wunderground v.1.15,2013-06-29 08:42:00,
2013-06-29 03:52:00,69.6,60.6,29.93,NNE,20,4.0,30.0,73,0.00,,,0.00,Wunderground v.1.15,2013-06-29 08:52:00,
2013-06-29 04:02:00,69.4,60.0,29.93,North,358,4.0,4.0,72,0.00,,,0.00,Wunderground v.1.15,2013-06-29 09:02:00,
2013-06-29 04:12:00,69.7,59.9,29.94,NNW,334,4.0,4.0,71,0.00,,,0.00,Wunderground v.1.15,2013-06-29 09:12:00,
2013-06-29 04:22:00,69.6,59.8,29.94,NW,321,3.0,30.0,71,0.00,,,0.00,Wunderground v.1.15,2013-06-29 09:22:00,
2013-06-29 04:32:00,69.6,59.4,29.94,NNW,333,3.0,30.0,70,0.00,,,0.00,Wunderground v.1.15,2013-06-29 09:32:00,
2013-06-29 04:42:00,69.4,59.6,29.94,NNW,345,3.0,30.0,71,0.00,,,0.00,Wunderground v.1.15,2013-06-29 09:42:00,
2013-06-29 04:52:00,69.2,59.4,29.94,NNW,337,2.0,30.0,71,0.00,,,0.00,Wunderground v.1.15,2013-06-29 09:52:00,
2013-06-29 05:01:00,68.8,59.8,29.94,North,359,3.0,30.0,73,0.00,,,0.00,Wunderground v.1.15,2013-06-29 10:01:00,
2013-06-29 05:11:00,68.7,59.3,29.94,North,354,4.0,4.0,72,0.00,,,0.00,Wunderground v.1.15,2013-06-29 10:11:00,
2013-06-29 05:21:00,69.2,59.0,29.94,North,8,3.0,30.0,70,0.00,,,0.00,Wunderground v.1.15,2013-06-29 10:21:00,
2013-06-29 05:31:00,69.0,59.2,29.94,NNW,341,3.0,30.0,71,0.00,,,0.00,Wunderground v.1.15,2013-06-29 10:31:00,
2013-06-29 05:42:00,68.8,59.0,29.95,NNW,331,4.0,30.0,71,0.00,,,0.00,Wunderground v.1.15,2013-06-29 10:42:00,
2013-06-29 05:51:00,68.9,58.3,29.95,NE,51,5.0,5.0,69,0.00,,,0.00,Wunderground v.1.15,2013-06-29 10:51:00,
2013-06-29 06:01:00,68.8,58.6,29.95,NNE,12,5.0,30.0,70,0.00,,,0.00,Wunderground v.1.15,2013-06-29 11:01:00,
2013-06-29 06:12:00,68.6,58.4,29.95,North,1,4.0,30.0,70,0.00,,,0.00,Wunderground v.1.15,2013-06-29 11:12:00,
2013-06-29 06:22:00,68.1,58.7,29.95,NNW,329,3.0,30.0,72,0.00,,,0.00,Wunderground v.1.15,2013-06-29 11:22:00,
2013-06-29 06:32:00,67.9,58.9,29.95,NNE,20,4.0,30.0,73,0.00,,,0.00,Wunderground v.1.15,2013-06-29 11:32:00,
2013-06-29 06:42:00,68.5,59.1,29.95,NW,326,4.0,4.0,72,0.00,,,0.00,Wunderground v.1.15,2013-06-29 11:42:00,
2013-06-29 06:52:00,69.2,59.4,29.95,NNW,333,3.0,30.0,71,0.00,,,0.00,Wunderground v.1.15,2013-06-29 11:52:00,
2013-06-29 07:02:00,69.7,59.5,29.95,North,11,4.0,4.0,70,0.00,,,0.00,Wunderground v.1.15,2013-06-29 12:02:00,
2013-06-29 07:12:00,70.8,59.7,29.95,NE,44,4.0,4.0,68,0.00,,,0.00,Wunderground v.1.15,2013-06-29 12:12:00,
2013-06-29 07:22:00,71.5,60.0,29.95,North,353,2.0,2.0,67,0.00,,,0.00,Wunderground v.1.15,2013-06-29 12:22:00,
2013-06-29 07:32:00,72.1,60.5,29.95,NNW,348,2.0,30.0,67,0.00,,,0.00,Wunderground v.1.15,2013-06-29 12:32:00,
2013-06-29 07:42:00,72.7,61.1,29.95,NNW,336,3.0,30.0,67,0.00,,,0.00,Wunderground v.1.15,2013-06-29 12:42:00,
2013-06-29 07:52:00,73.0,60.5,29.96,NW,312,3.0,3.0,65,0.00,,,0.00,Wunderground v.1.15,2013-06-29 12:52:00,
2013-06-29 08:02:00,73.6,60.7,29.96,NW,310,3.0,3.0,64,0.00,,,0.00,Wunderground v.1.15,2013-06-29 13:02:00,
2013-06-29 08:12:00,74.6,60.3,29.97,NW,314,3.0,30.0,61,0.00,,,0.00,Wunderground v.1.15,2013-06-29 13:12:00,
2013-06-29 08:21:00,75.7,60.8,29.97,WNW,293,3.0,3.0,60,0.00,,,0.00,Wunderground v.1.15,2013-06-29 13:21:00,
2013-06-29 08:32:00,76.7,60.8,29.97,WNW,299,3.0,30.0,58,0.00,,,0.00,Wunderground v.1.15,2013-06-29 13:32:00,
2013-06-29 08:42:00,77.3,59.9,29.97,WNW,295,5.0,30.0,55,0.00,,,0.00,Wunderground v.1.15,2013-06-29 13:42:00,
2013-06-29 08:51:00,78.1,60.1,29.97,NW,308,5.0,30.0,54,0.00,,,0.00,Wunderground v.1.15,2013-06-29 13:51:00,
2013-06-29 09:01:00,78.5,59.4,29.97,WNW,287,6.0,30.0,52,0.00,,,0.00,Wunderground v.1.15,2013-06-29 14:01:00,
2013-06-29 09:11:00,79.0,59.3,29.97,WNW,300,6.0,30.0,51,0.00,,,0.00,Wunderground v.1.15,2013-06-29 14:11:00,
2013-06-29 09:22:00,79.8,60.6,29.96,NW,305,6.0,30.0,52,0.00,,,0.00,Wunderground v.1.15,2013-06-29 14:22:00,
2013-06-29 09:32:00,80.1,59.2,29.96,WNW,302,7.0,30.0,49,0.00,,,0.00,Wunderground v.1.15,2013-06-29 14:32:00,
2013-06-29 09:42:00,80.2,59.9,29.96,WNW,285,6.0,30.0,50,0.00,,,0.00,Wunderground v.1.15,2013-06-29 14:42:00,
2013-06-29 09:52:00,80.0,60.8,29.96,WNW,285,8.0,30.0,52,0.00,,,0.00,Wunderground v.1.15,2013-06-29 14:52:00,
2013-06-29 10:02:00,80.3,60.5,29.96,West,273,8.0,8.0,51,0.00,,,0.00,Wunderground v.1.15,2013-06-29 15:02:00,
2013-06-29 10:12:00,80.6,60.2,29.95,WNW,283,8.0,30.0,50,0.00,,,0.00,Wunderground v.1.15,2013-06-29 15:12:00,
2013-06-29 10:22:00,81.3,59.7,29.95,NW,321,8.0,30.0,48,0.00,,,0.00,Wunderground v.1.15,2013-06-29 15:22:00,
2013-06-29 10:32:00,82.2,56.8,29.95,WNW,291,8.0,30.0,42,0.00,,,0.00,Wunderground v.1.15,2013-06-29 15:32:00,
2013-06-29 10:42:00,82.3,58.2,29.95,NNW,346,9.0,30.0,44,0.00,,,0.00,Wunderground v.1.15,2013-06-29 15:42:00,
2013-06-29 10:52:00,82.3,56.9,29.95,NNW,338,11.0,30.0,42,0.00,,,0.00,Wunderground v.1.15,2013-06-29 15:52:00,
2013-06-29 11:02:00,83.0,56.9,29.95,WSW,246,9.0,9.0,41,0.00,,,0.00,Wunderground v.1.15,2013-06-29 16:02:00,
2013-06-29 11:12:00,83.1,57.0,29.95,NNE,27,10.0,10.0,41,0.00,,,0.00,Wunderground v.1.15,2013-06-29 16:12:00,
2013-06-29 11:22:00,83.2,57.1,29.94,NNE,15,11.0,11.0,41,0.00,,,0.00,Wunderground v.1.15,2013-06-29 16:22:00,
2013-06-29 11:32:00,83.6,57.4,29.94,NW,316,10.0,10.0,41,0.00,,,0.00,Wunderground v.1.15,2013-06-29 16:32:00,
2013-06-29 11:42:00,83.5,57.3,29.94,NNW,346,10.0,30.0,41,0.00,,,0.00,Wunderground v.1.15,2013-06-29 16:42:00,
2013-06-29 11:52:00,83.2,58.4,29.93,WNW,300,12.0,30.0,43,0.00,,,0.00,Wunderground v.1.15,2013-06-29 16:52:00,
2013-06-29 12:01:00,84.2,59.3,29.93,NNW,345,10.0,10.0,43,0.00,,,0.00,Wunderground v.1.15,2013-06-29 17:01:00,
2013-06-29 12:11:00,84.3,58.7,29.93,NW,314,8.0,30.0,42,0.00,,,0.00,Wunderground v.1.15,2013-06-29 17:11:00,
2013-06-29 12:21:00,85.0,56.5,29.93,NW,311,10.0,10.0,38,0.00,,,0.00,Wunderground v.1.15,2013-06-29 17:21:00,
2013-06-29 12:32:00,84.9,56.5,29.93,NNE,24,14.0,14.0,38,0.00,,,0.00,Wunderground v.1.15,2013-06-29 17:32:00,
2013-06-29 12:42:00,85.1,55.9,29.93,NNE,31,14.0,14.0,37,0.00,,,0.00,Wunderground v.1.15,2013-06-29 17:42:00,
2013-06-29 12:51:00,85.4,57.6,29.93,NW,305,12.0,12.0,39,0.00,,,0.00,Wunderground v.1.15,2013-06-29 17:51:00,
2013-06-29 13:01:00,85.6,56.3,29.92,NNE,17,10.0,30.0,37,0.00,,,0.00,Wunderground v.1.15,2013-06-29 18:01:00,
2013-06-29 13:12:00,85.6,54.8,29.92,NE,39,12.0,12.0,35,0.00,,,0.00,Wunderground v.1.15,2013-06-29 18:12:00,
2013-06-29 13:22:00,86.4,54.7,29.92,NNE,24,12.0,30.0,34,0.00,,,0.00,Wunderground v.1.15,2013-06-29 18:22:00,
2013-06-29 13:32:00,86.1,56.0,29.92,NNE,24,14.0,14.0,36,0.00,,,0.00,Wunderground v.1.15,2013-06-29 18:32:00,
2013-06-29 13:42:00,86.2,56.9,29.91,NNW,333,13.0,13.0,37,0.00,,,0.00,Wunderground v.1.15,2013-06-29 18:42:00,
2013-06-29 13:52:00,86.4,57.8,29.91,North,353,14.0,14.0,38,0.00,,,0.00,Wunderground v.1.15,2013-06-29 18:52:00,
2013-06-29 14:02:00,86.8,56.6,29.91,NNE,26,11.0,30.0,36,0.00,,,0.00,Wunderground v.1.15,2013-06-29 19:02:00,
2013-06-29 14:12:00,86.4,57.0,29.90,North,5,12.0,12.0,37,0.00,,,0.00,Wunderground v.1.15,2013-06-29 19:12:00,
2013-06-29 14:22:00,86.8,56.6,29.90,NNW,338,12.0,12.0,36,0.00,,,0.00,Wunderground v.1.15,2013-06-29 19:22:00,
2013-06-29 14:32:00,86.6,56.5,29.90,WNW,293,13.0,30.0,36,0.00,,,0.00,Wunderground v.1.15,2013-06-29 19:32:00,
2013-06-29 14:42:00,86.2,56.1,29.90,NE,43,11.0,30.0,36,0.00,,,0.00,Wunderground v.1.15,2013-06-29 19:42:00,
2013-06-29 14:52:00,86.4,57.0,29.89,NNE,22,13.0,30.0,37,0.00,,,0.00,Wunderground v.1.15,2013-06-29 19:52:00,
2013-06-29 15:02:00,86.9,58.2,29.89,NNW,330,13.0,13.0,38,0.00,,,0.00,Wunderground v.1.15,2013-06-29 20:02:00,
2013-06-29 15:11:00,87.2,58.5,29.88,NNW,327,11.0,30.0,38,0.00,,,0.00,Wunderground v.1.15,2013-06-29 20:11:00,
2013-06-29 15:21:00,87.1,56.9,29.88,WNW,291,12.0,12.0,36,0.00,,,0.00,Wunderground v.1.15,2013-06-29 20:21:00,
2013-06-29 15:32:00,87.3,57.1,29.88,WNW,298,12.0,12.0,36,0.00,,,0.00,Wunderground v.1.15,2013-06-29 20:32:00,
2013-06-29 15:42:00,87.7,56.7,29.88,NNW,340,11.0,11.0,35,0.00,,,0.00,Wunderground v.1.15,2013-06-29 20:42:00,
2013-06-29 15:51:00,87.3,57.1,29.88,NE,55,12.0,12.0,36,0.00,,,0.00,Wunderground v.1.15,2013-06-29 20:51:00,
2013-06-29 16:01:00,87.4,57.2,29.87,NNE,16,13.0,30.0,36,0.00,,,0.00,Wunderground v.1.15,2013-06-29 21:01:00,
2013-06-29 16:12:00,87.7,57.4,29.87,WNW,300,11.0,11.0,36,0.00,,,0.00,Wunderground v.1.15,2013-06-29 21:12:00,
2013-06-29 16:21:00,87.6,57.3,29.86,NE,51,12.0,30.0,36,0.00,,,0.00,Wunderground v.1.15,2013-06-29 21:21:00,
2013-06-29 16:31:00,87.8,56.7,29.86,North,356,14.0,30.0,35,0.00,,,0.00,Wunderground v.1.15,2013-06-29 21:31:00,
2013-06-29 16:41:00,87.9,56.8,29.86,NNW,340,12.0,12.0,35,0.00,,,0.00,Wunderground v.1.15,2013-06-29 21:41:00,
2013-06-29 16:52:00,88.1,56.2,29.86,NW,326,12.0,12.0,34,0.00,,,0.00,Wunderground v.1.15,2013-06-29 21:52:00,
2013-06-29 17:02:00,88.2,55.5,29.85,North,356,12.0,30.0,33,0.00,,,0.00,Wunderground v.1.15,2013-06-29 22:02:00,
2013-06-29 17:12:00,87.8,55.9,29.86,NNE,15,14.0,30.0,34,0.00,,,0.00,Wunderground v.1.15,2013-06-29 22:12:00,
2013-06-29 17:22:00,87.7,56.7,29.85,NNE,24,12.0,30.0,35,0.00,,,0.00,Wunderground v.1.15,2013-06-29 22:22:00,
2013-06-29 17:32:00,87.5,55.7,29.85,North,354,15.0,15.0,34,0.00,,,0.00,Wunderground v.1.15,2013-06-29 22:32:00,
2013-06-29 17:42:00,87.5,56.5,29.85,NE,44,13.0,30.0,35,0.00,,,0.00,Wunderground v.1.15,2013-06-29 22:42:00,
2013-06-29 17:52:00,87.2,55.4,29.85,NNE,24,14.0,30.0,34,0.00,,,0.00,Wunderground v.1.15,2013-06-29 22:52:00,
2013-06-29 18:02:00,87.1,56.1,29.84,ENE,63,13.0,13.0,35,0.00,,,0.00,Wunderground v.1.15,2013-06-29 23:02:00,
2013-06-29 18:12:00,86.7,55.0,29.84,NNE,22,16.0,30.0,34,0.00,,,0.00,Wunderground v.1.15,2013-06-29 23:12:00,
2013-06-29 18:22:00,86.4,55.5,29.84,NNW,333,16.0,16.0,35,0.00,,,0.00,Wunderground v.1.15,2013-06-29 23:22:00,
2013-06-29 18:32:00,86.3,54.6,29.84,NW,318,15.0,30.0,34,0.00,,,0.00,Wunderground v.1.15,2013-06-29 23:32:00,
2013-06-29 18:42:00,86.1,53.6,29.84,NNE,19,15.0,30.0,33,0.00,,,0.00,Wunderground v.1.15,2013-06-29 23:42:00,
2013-06-29 18:52:00,85.9,53.5,29.84,NNE,15,14.0,30.0,33,0.00,,,0.00,Wunderground v.1.15,2013-06-29 23:52:00,
2013-06-29 19:02:00,85.8,55.0,29.84,NNW,348,12.0,12.0,35,0.00,,,0.00,Wunderground v.1.15,2013-06-30 00:02:00,
2013-06-29 19:12:00,85.5,53.1,29.85,North,360,14.0,30.0,33,0.00,,,0.00,Wunderground v.1.15,2013-06-30 00:12:00,
2013-06-29 19:22:00,85.4,53.8,29.85,NW,326,11.0,11.0,34,0.00,,,0.00,Wunderground v.1.15,2013-06-30 00:22:00,
2013-06-29 19:31:00,85.0,53.5,29.85,NNE,20,13.0,13.0,34,0.00,,,0.00,Wunderground v.1.15,2013-06-30 00:31:00,
2013-06-29 19:41:00,84.6,52.3,29.85,North,353,11.0,30.0,33,0.00,,,0.00,Wunderground v.1.15,2013-06-30 00:41:00,
2013-06-29 19:51:00,84.3,52.1,29.85,North,358,9.0,30.0,33,0.00,,,0.00,Wunderground v.1.15,2013-06-30 00:51:00,
2013-06-29 20:02:00,83.8,52.4,29.86,NE,36,11.0,30.0,34,0.00,,,0.00,Wunderground v.1.15,2013-06-30 01:02:00,
2013-06-29 20:12:00,83.2,52.7,29.86,North,354,10.0,30.0,35,0.00,,,0.00,Wunderground v.1.15,2013-06-30 01:12:00,
2013-06-29 20:22:00,82.5,52.9,29.86,NNE,25,10.0,10.0,36,0.00,,,0.00,Wunderground v.1.15,2013-06-30 01:22:00,
2013-06-29 20:32:00,81.7,52.9,29.87,NNE,19,8.0,30.0,37,0.00,,,0.00,Wunderground v.1.15,2013-06-30 01:32:00,
2013-06-29 20:42:00,80.9,52.2,29.87,North,9,8.0,30.0,37,0.00,,,0.00,Wunderground v.1.15,2013-06-30 01:42:00,
2013-06-29 20:52:00,80.2,51.6,29.87,NNE,17,10.0,10.0,37,0.00,,,0.00,Wunderground v.1.15,2013-06-30 01:52:00,
2013-06-29 21:02:00,79.4,51.6,29.88,North,11,8.0,30.0,38,0.00,,,0.00,Wunderground v.1.15,2013-06-30 02:02:00,
2013-06-29 21:12:00,78.5,52.2,29.88,NE,42,6.0,6.0,40,0.00,,,0.00,Wunderground v.1.15,2013-06-30 02:12:00,
2013-06-29 21:22:00,77.7,51.5,29.88,NNW,342,5.0,30.0,40,0.00,,,0.00,Wunderground v.1.15,2013-06-30 02:22:00,
2013-06-29 21:32:00,76.7,51.9,29.89,NNE,23,4.0,30.0,42,0.00,,,0.00,Wunderground v.1.15,2013-06-30 02:32:00,
2013-06-29 21:42:00,75.6,52.1,29.89,NW,313,2.0,30.0,44,0.00,,,0.00,Wunderground v.1.15,2013-06-30 02:42:00,
2013-06-29 21:52:00,74.7,52.5,29.90,NW,314,2.0,2.0,46,0.00,,,0.00,Wunderground v.1.15,2013-06-30 02:52:00,
2013-06-29 22:02:00,73.7,52.8,29.90,NNW,329,1.0,30.0,48,0.00,,,0.00,Wunderground v.1.15,2013-06-30 03:02:00,
2013-06-29 22:12:00,72.8,53.1,29.91,NNW,328,1.0,30.0,50,0.00,,,0.00,Wunderground v.1.15,2013-06-30 03:12:00,
2013-06-29 22:22:00,72.0,53.4,29.91,NW,314,2.0,30.0,52,0.00,,,0.00,Wunderground v.1.15,2013-06-30 03:22:00,
2013-06-29 22:32:00,71.4,53.9,29.92,NW,321,2.0,2.0,54,0.00,,,0.00,Wunderground v.1.15,2013-06-30 03:32:00,
2013-06-29 22:42:00,71.4,53.4,29.92,NW,319,2.0,30.0,53,0.00,,,0.00,Wunderground v.1.15,2013-06-30 03:42:00,
2013-06-29 22:52:00,71.9,52.8,29.92,NNE,23,4.0,30.0,51,0.00,,,0.00,Wunderground v.1.15,2013-06-30 03:52:00,
2013-06-29 23:02:00,72.8,52.5,29.91,North,349,6.0,6.0,49,0.00,,,0.00,Wunderground v.1.15,2013-06-30 04:02:00,
2013-06-29 23:12:00,72.7,53.0,29.92,ENE,60,5.0,30.0,50,0.00,,,0.00,Wunderground v.1.15,2013-06-30 04:12:00,
2013-06-29 23:21:00,72.9,52.6,29.92,NNE,25,6.0,30.0,49,0.00,,,0.00,Wunderground v.1.15,2013-06-30 04:21:00,
2013-06-29 23:31:00,73.1,52.8,29.92,NNE,25,7.0,30.0,49,0.00,,,0.00,Wunderground v.1.15,2013-06-30 04:31:00,
2013-06-29 23:41:00,73.2,53.4,29.92,NNE,23,7.0,7.0,50,0.00,,,0.00,Wunderground v.1.15,2013-06-30 04:41:00,
2013-06-29 23:52:00,72.9,53.7,29.92,NNE,25,6.0,6.0,51,0.00,,,0.00,Wunderground v.1.15,2013-06-30 04:52:00,